Other Public Products
Issued by NWS Grand Forks, ND

Home | Current Version | Previous Version | Graphics & Text | Print | Product List | Glossary On
Versions: 1 2 3 4 5 6 7 8 9 10 11 12 13 14 15 16 17 18 19 20 21 22 23 24 25 26 27 28 29 30 31 32 33 34 35 36 37 38 39 40 41 42 43 44 45 46 47 48 49 50
000
FPUS83 KFGF 302010
OPUFGF
PRAIRIE TO PINES WEATHER ROUNDUP
NATIONAL WEATHER SERVICE EASTERN NORTH DAKOTA/GRAND FORKS ND
300 PM CDT MON MAY 30 2016

 **SATELLITE DATA USED TO AUGMENT SKY COVER AT AUTOMATED STATIONS**
 *****  WEATHER ACROSS EASTERN NORTH DAKOTA  *****

CITY           SKY/WX    TMP DP  RH WIND       PRES   REMARKS
GRAND FORKS    PTSUNNY   79  53  40 CALM      29.85F
GRAND FORKS AF CLOUDY    77  54  45 SE6       29.86S
GRAND CITY NWS   N/A     77 N/A N/A NE2         N/A
BUXTON           N/A     84  55  36 S6          N/A
DEVILS LAKE    CLOUDY    72  54  53 S20G28    29.90R
FARGO          MOSUNNY   85  45  24 SE13      29.84F
WAHPETON ARPT  CLOUDY    86  37  17 S15G22    29.85F
$$

 *****  WEATHER ACROSS CENTRAL AND WESTERN NORTH DAKOTA  *****

CITY           SKY/WX    TMP DP  RH WIND       PRES   REMARKS
JAMESTOWN      CLOUDY    81  52  36 SE10G24   29.81F
BISMARCK       CLOUDY    79  58  48 VRB3      29.82F
MINOT          CLOUDY    69  50  50 W12       29.88S
MINOT AFB      CLOUDY    66  49  53 W15       29.87S
GARRISON         N/A     58  53  84 NW12      29.89R
WILLISTON      LGT RAIN  59  52  77 N10       29.93F
DICKINSON      LGT RAIN  55  52  89 NE10      29.88F
HETTINGER      TSTM      54  51  90 NW17      29.90R FOG
$$

 *****  OTHER OBSERVATIONS NORTHEAST NORTH DAKOTA  *****

CITY           SKY/WX    TMP DP  RH WIND       PRES   REMARKS
WALHALLA       FAIR      77  73  88 E10       29.87S
LANGDON        FAIR      81  46  30 E8G14     29.88S
CAVALIER       FAIR      79  48  34 SE7       29.86F
GRAFTON        FAIR      79  52  38 SE8       29.88S
CANDO          NOT AVBL
FORT TOTTEN      N/A     68  48  49 S13       29.95S
ROLLA            N/A     75  39  27 NE9       29.89S
RUGBY          FAIR      77  41  27 E7        29.87R
 ***** THE ABOVE OBSERVATIONS ARE NON NWS ARE NOT QUALITY
        CONTROLLED AND MAY MIS-REPORT RAIN FOR SNOW...
$$

 *****  OTHER OBSERVATIONS SOUTHEAST NORTH DAKOTA *****

CITY           SKY/WX    TMP DP  RH WIND       PRES   REMARKS
COOPERSTOWN    NOT AVBL
VALLEY CITY    FAIR      81  50  34 S16       29.85F
OAKES            N/A    N/A N/A N/A MISG        N/A
GWINNER        FAIR      84  52  32 SE15G21   29.84F
SHEYENNE NWR     N/A     86  48  26 S13       29.95S
BUFFALO          N/A     84  44  24 SE7G21      N/A
WYNDMERE         N/A     88  45  22 SE16        N/A
 ***** THE ABOVE OBSERVATIONS ARE NON NWS ARE NOT QUALITY
       CONTROLLED AND MAY MIS-REPORT RAIN FOR SNOW...
$$

  *****  WEATHER ACROSS NORTHERN MINNESOTA  *****

CITY           SKY/WX    TMP DP  RH WIND       PRES   REMARKS
FLAG ISLAND    MOSUNNY   68  50  52 E5        29.93F
WARROAD        SUNNY     66  59  77 NE13      29.93F
ROSEAU         SUNNY     77  52  41 SW3       29.90F
HALLOCK        MOSUNNY   81  45  28 SE9       29.86F
THF RVR FALLS  SUNNY     77  48  36 E7        29.90F
HALSTAD        NOT AVBL
FOSSTON        SUNNY     81  50  34 W3        29.90F
BAUDETTE       SUNNY     78  46  32 N7        29.92F
WASKISH        MOSUNNY   77  46  33 SW6       29.93F
CROOKSTON      SUNNY     81  54  39 SE6       29.87F
$$
  *****  WEATHER ACROSS CENTRAL AND WEST MINNESOTA  *****

CITY           SKY/WX    TMP DP  RH WIND       PRES   REMARKS
BEMIDJI        SUNNY     80  46  30 E6        29.91F
PARK RAPIDS    PTSUNNY   78  50  37 SW5       29.91F
WADENA         CLOUDY    81  48  32 SW9       29.92F
DETROIT LAKES  MOSUNNY   81  48  32 S13G20    29.91F
MOORHEAD       MOSUNNY   84  46  26 SE8       29.85F
FERGUS FALLS   CLOUDY    82  46  28 S12G18    29.84F
ELBOW LAKE     FAIR      82  49  32 SE16G25   29.89F
MORRIS MN      MOSUNNY   81  55  41 S10G16    29.88F
STAPLES        CLOUDY    79  46  31 S13       29.93F
WHEATON        MOSUNNY   88  54  31 S9        29.87F
$$
  *****  WEATHER ELSEWHERE ACROSS MINNESOTA  *****

CITY           SKY/WX    TMP DP  RH WIND       PRES   REMARKS
DULUTH         MOSUNNY   80  45  28 N7        29.95F
INTRNTL FALLS  PTSUNNY   74  53  48 N9        29.95S
ELY            MOSUNNY   72  45  37 N6G17     29.97S
CLOQUET        MOSUNNY   79  41  25 W6        29.95F
BRAINERD       MOSUNNY   80  50  34 S12       29.94F
HIBBING        MOSUNNY   74  41  30 VRB6      29.95F
ALEXANDRIA     SUNNY     80  49  33 S14       29.94F
SAINT CLOUD    SUNNY     81  51  35 S14       29.95F
MINNEAPOLIS    MOSUNNY   82  51  34 S8        29.96F
$$

  *****  WEATHER ACROSS SOUTH DAKOTA  *****

CITY           SKY/WX    TMP DP  RH WIND       PRES   REMARKS
SIOUX FALLS    CLOUDY    79  60  52 S12       29.89F
BROOKINGS      MOSUNNY   79  59  50 S14G21    29.89F
WATERTOWN      MOSUNNY   79  54  41 S15G22    29.89F
HURON          MOSUNNY   79  61  53 S18G25    29.83F
SISSETON         N/A     83  52  34 SW12      29.84F
ABERDEEN       PTSUNNY   83  53  35 S16G26    29.83F
MITCHELL       MOSUNNY   80  61  52 S15       29.85F
PIERRE         MOSUNNY   81  58  45 S16G25    29.77F
MOBRIDGE       TSTM      67  62  84 NE13      29.78F VSB 1
RAPID CITY     PTSUNNY   75  51  43 N30G39    29.83R
$$

  *****  SOME WEATHER IN NEARBY STATES *****

CITY           SKY/WX    TMP DP  RH WIND       PRES   REMARKS
GLASGOW MT     RAIN      52  49  89 W14       29.98R FOG
GREAT FALLS MT PTSUNNY   60  34  37 N18G30    30.13S
CHEYENNE WY    CLOUDY    56  46  69 NE7       30.05F
SCOTTSBLUFF NE CLOUDY    75  42  30 W15       29.92F
OMAHA NE       PTSUNNY   88  60  38 S12       29.90F
DES MOINES IA  MOSUNNY   87  59  38 SW13      29.94F
DAVENPORT IA   SUNNY     83  55  38 SE3       30.00F
CHICAGO IL     MOSUNNY   86  55  34 NW13      29.97F
EAU CLAIRE WI  SUNNY     80  49  33 CALM      29.97F
LA CROSSE WI   SUNNY     84  46  26 VRB5      29.97F
$$

  *****  SOME NATIONAL WEATHER *****

CITY           SKY/WX    TMP DP  RH WIND       PRES   REMARKS
LA GUARDIA NY  CLOUDY    78  73  84 S13       29.92F
RALEIGH NC     TSTM      75  72  88 E16       29.93F FOG
ATLANTA GA     MOSUNNY   92  56  29 NW12      29.96F HX  90
NEW ORLEANS LA TSTM      76  64  66 SE24G39   30.01R VSB 1/2
OKLAHOMA CITY  PTSUNNY   80  65  59 VRB3      29.96F
ALBUQUERQUE NM PTSUNNY   82  22  11 VRB3      30.05F
SALT LAKE CITY MOSUNNY   77  41  27 NW10      30.08F
LOS ANGELES CA PTSUNNY   67  55  65 SW7       29.99F
BOISE ID       PTSUNNY   71  35  26 NW17G23   30.13F
SEATTLE WA     MOSUNNY   65  46  50 NW12      30.28F
$$

*** WEATHER ACROSS MANITOBA...SASKATCHEWAN AND ONTARIO ***
                ***ONTARIO***

CITY           SKY/WX    TMP DP  RH WIND       PRES   REMARKS
GERALDTON      CLOUDY    46  43  87 NW13G24   29.92R
THUNDER BAY    PTSUNNY   70  48  46 NW14G25   29.92R
SIOUX LOOKOUT  PTSUNNY   57  46  67 NE5       30.03R
TORONTO        PTSUNNY   81  52  36 W22G29    29.92S
BIG TROUT LK   SUNNY     55  30  38 NE9       30.07R
PICKLE LAKE    PTSUNNY   57  45  62 N9        30.01S
DRYDEN         MOSUNNY   61  48  63 NE10G17   30.00S
KENORA         PTSUNNY   68  50  52 NE7       29.97S
$$
                *** MANITOBA***

CITY           SKY/WX    TMP DP  RH WIND       PRES   REMARKS
BRANDON        CLOUDY    77  48  36 E8        29.87F
DAUPHIN        CLOUDY    63  54  72 NE7       29.96R
ISLAND LAKE    NOT AVBL
PILOT MOUND      N/A     75  41  29 NW6         N/A
THE PAS        CLOUDY    59  50  72 E10G20    30.01R
THOMPSON       CLOUDY    50  43  76 NE12      30.14S
WINNIPEG       PTSUNNY   75  55  50 NE12      29.89S
LYNN LAKE      LGT RAIN  41  41 100 E12       30.15R FOG
CHURCHILL      PTSUNNY   34  28  80 E16       30.33S WCI  23
GILLAM         PTSUNNY   52  32  46 E8        30.19R
$$
                ***SASKATCHEWAN***

CITY           SKY/WX    TMP DP  RH WIND       PRES   REMARKS
ESTEVAN        LGT RAIN  68  50  52 SW18      29.90R
KINDERSLEY     CLOUDY    57  50  77 NE17      29.94R
LLOYDMINSTER   CLOUDY    57  48  72 N9        30.02S
PRINCE ALBERT  PTSUNNY   64  46  52 E10G17    29.98S
REGINA         CLOUDY    70  48  46 SW10      29.86F
YORKTON        SUNNY     68  52  56 N9G21     29.91S   C1F1C2F2C3F3C4F4C5F5C6F6C7F7C8F8C9F9CaFaCbFbCcFcCdFdCe!


USA.gov is the U.S. government's official web portal to all federal, state and local government web resources and services.